Vorticity
-22 -1 49 8 1 6 7 7 7 9 10 9 8 9 10 10 10 10 9 8 8 9 9 8 9 9 9 10 12 14 13 11
-1 46 -0 13 12 13 16 16 8 3 9 12 10 10 9 10 10 9 8 8 9 10 10 11 12 11 11 9 8 9 9 8
10 8 6 -4 -7 1 5 11 13 12 8 7 12 10 9 7 7 8 10 12 13 12 11 10 9 12 12 9 5 5 6 8
-19 19 -7 14 1 -22 -1 5 7 8 12 10 7 6 5 7 9 13 11 15 11 8 10 11 7 5 7 7 7 7 7 7
15 1 15 30 26 7 2 6 6 9 10 6 5 6 7 8 12 15 15 11 10 9 6 7 9 8 7 7 8 7 8 8
-11 19 8 4 9 -4 3 2 6 11 8 6 6 6 6 6 9 12 11 8 6 7 8 7 6 6 7 7 7 8 8 9
-2 10 6 2 -2 0 1 4 8 11 7 3 4 6 7 10 14 11 8 6 6 6 6 6 6 6 7 8 8 8 9 10
3 6 7 1 -1 0 1 1 10 7 4 5 7 9 11 13 12 7 4 5 6 5 5 6 5 7 8 8 8 9 10 11
2 7 2 2 0 2 1 -0 7 4 6 8 8 8 10 14 13 6 6 6 5 5 6 6 7 7 7 8 9 11 10 9
2 10 -1 -1 3 2 -0 0 7 3 7 11 9 10 12 14 8 6 6 5 5 6 6 7 7 7 7 9 10 10 10 10
10 9 1 -4 -10 -10 11 1 4 4 10 10 10 10 12 10 7 6 6 6 7 6 6 7 7 6 8 10 10 9 10 10
8 5 3 6 1 -1 2 2 3 7 10 9 9 10 12 8 7 7 7 7 6 6 7 7 7 7 8 9 9 10 11 11
5 4 2 2 -2 -10 4 2 4 8 9 9 10 12 10 8 7 7 6 6 6 6 7 7 7 8 8 8 9 10 11 11
7 4 4 7 14 10 -1 3 5 9 9 10 12 12 9 7 7 6 6 6 6 6 7 7 8 8 9 9 9 10 11 11
2 12 5 2 -9 5 0 4 7 9 9 10 14 10 8 7 7 6 7 7 7 6 6 7 8 8 9 9 9 10 11 11
3 14 11 15 16 -4 2 7 8 6 8 13 14 10 8 7 7 7 8 7 7 6 6 7 8 8 9 10 9 9 10 12
14 14 8 12 1 1 6 8 7 6 8 14 13 9 7 8 7 8 8 7 6 6 7 7 8 8 9 9 10 10 11 12
23 8 18 3 -1 5 8 8 7 6 8 14 11 8 7 7 7 8 8 7 7 6 6 7 8 9 9 10 10 11 11 12
9 11 4 -4 5 7 9 7 7 8 10 15 10 8 7 7 7 8 8 8 7 6 6 8 9 8 9 10 10 11 11 12
Height
3191 3192 3191 3192 3191 3192 3192 3194 3193 3192 3191 3189 3187 3185 3182 3180 3178 3175 3172 3169 3167 3165 3162 3159 3156 3153 3150 3147 3144 3140 3140 3139
3189 3189 3191 3189 3189 3192 3192 3193 3192 3190 3188 3186 3184 3182 3179 3176 3174 3171 3168 3165 3163 3161 3158 3155 3152 3149 3146 3143 3140 3136 3133 3133
3189 3191 3191 3190 3190 3189 3191 3191 3189 3186 3184 3182 3180 3178 3175 3172 3170 3167 3164 3162 3160 3157 3154 3151 3148 3145 3141 3139 3136 3133 3128 3124
3189 3190 3190 3189 3189 3190 3190 3187 3185 3184 3181 3179 3177 3174 3171 3169 3166 3163 3160 3158 3155 3152 3149 3146 3144 3141 3137 3134 3130 3127 3124 3120
3188 3189 3187 3189 3189 3189 3188 3185 3183 3181 3179 3176 3173 3170 3168 3165 3162 3159 3156 3153 3151 3148 3146 3144 3141 3137 3133 3128 3124 3120 3116 3111
3186 3187 3186 3187 3186 3187 3185 3183 3181 3179 3176 3173 3171 3168 3164 3159 3156 3154 3152 3150 3147 3145 3142 3139 3135 3131 3127 3123 3118 3114 3110 3105
3184 3184 3184 3184 3184 3184 3183 3181 3179 3176 3173 3169 3166 3163 3159 3157 3154 3152 3149 3146 3142 3138 3135 3131 3128 3124 3120 3117 3111 3106 3102 3097
3182 3182 3182 3183 3182 3181 3179 3177 3174 3171 3169 3166 3163 3160 3156 3153 3150 3147 3144 3141 3137 3133 3130 3126 3122 3118 3114 3108 3103 3099 3094 3089
3178 3179 3180 3180 3179 3178 3176 3174 3171 3169 3166 3162 3158 3154 3152 3149 3146 3144 3140 3136 3132 3128 3124 3119 3115 3111 3106 3101 3096 3091 3086 3081
3175 3176 3176 3177 3176 3175 3174 3170 3168 3165 3161 3157 3153 3151 3148 3144 3142 3138 3134 3131 3127 3123 3118 3113 3108 3103 3099 3093 3088 3083 3078 3073
3171 3172 3173 3173 3173 3172 3169 3167 3163 3161 3156 3152 3149 3144 3142 3139 3136 3133 3129 3126 3123 3118 3113 3107 3102 3096 3091 3086 3081 3076 3070 3064
3168 3169 3169 3169 3168 3166 3165 3162 3159 3155 3151 3147 3143 3139 3136 3133 3131 3128 3125 3121 3116 3111 3106 3102 3096 3090 3085 3080 3074 3068 3062 3057
3164 3164 3164 3164 3163 3160 3159 3157 3153 3149 3145 3141 3138 3134 3131 3128 3126 3123 3119 3114 3110 3104 3100 3095 3089 3083 3078 3072 3066 3059 3054 3048
3159 3158 3158 3157 3156 3155 3153 3151 3147 3143 3139 3135 3131 3129 3126 3123 3121 3117 3113 3109 3104 3099 3093 3088 3082 3075 3069 3063 3057 3051 3046 3039
3153 3152 3152 3152 3151 3149 3148 3145 3141 3137 3133 3130 3126 3124 3121 3118 3116 3112 3108 3104 3098 3092 3086 3080 3074 3067 3061 3056 3050 3044 3037 3030
3146 3145 3145 3146 3145 3144 3142 3139 3135 3132 3128 3124 3121 3118 3115 3113 3110 3106 3102 3097 3092 3086 3080 3073 3067 3060 3053 3047 3041 3034 3028 3022
3139 3139 3140 3140 3140 3139 3136 3132 3129 3125 3122 3118 3115 3112 3109 3107 3104 3100 3096 3090 3085 3079 3074 3067 3060 3053 3046 3039 3032 3026 3020 3012
3133 3135 3135 3135 3135 3133 3129 3125 3122 3119 3115 3112 3109 3106 3103 3101 3097 3094 3090 3084 3079 3073 3067 3060 3053 3046 3039 3032 3025 3018 3011 3004
3126 3129 3130 3130 3129 3127 3123 3120 3116 3112 3109 3106 3103 3100 3097 3094 3091 3088 3083 3078 3073 3068 3061 3053 3046 3039 3032 3024 3016 3010 3004 2997